Regional Weather Roundup
Issued by NWS

Home | Current Version | Previous Version | Graphics & Text | Print | Product List | Glossary Off
Versions: 1 2 3 4 5 6 7 8 9 10 11 12 13 14 15 16 17 18 19 20 21 22 23 24 25 26 27 28 29 30 31 32 33 34 35 36 37 38 39 40 41 42 43 44 45 46 47 48 49 50

000
ASUS43 KLSX 091810
RWRMO

WEATHER SUMMARY FOR MISSOURI
NATIONAL WEATHER SERVICE SPRINGFIELD MO
1200 PM CST FRI DEC 09 2016

NOTE: "FAIR" INDICATES FEW OR NO CLOUDS BELOW 12,000 FEET WITH NO
       SIGNIFICANT WEATHER AND/OR OBSTRUCTIONS TO VISIBILITY.
       CURRENT SKY AND/OR WEATHER CONDITIONS ARE NOT AVAILABLE FOR
       CHILLICOTHE AND FARMINGTON.

MOZ001>031-035>038-043-044-053-054-091900-
...NORTHERN AND WESTERN MISSOURI...

CITY           SKY/WX    TMP DP  RH WIND       PRES   REMARKS
KANSAS CTY INT CLOUDY    22  11  62 S5        30.61F WCI  16
6HR MIN TEMP:  12; 6HR MAX TEMP:  22;

KANSAS C DTWN  CLOUDY    25  11  55 VRB3      30.64F
6HR MIN TEMP:  15; 6HR MAX TEMP:  25;

LEE`S SUMMIT   PTSUNNY   23  11  60 MISG      30.63F
6HR MIN TEMP:  14; 6HR MAX TEMP:  23;

ST JOSEPH      CLOUDY    22  13  68 CALM      30.64F
6HR MIN TEMP:   6; 6HR MAX TEMP:  23;

CHILLICOTHE      N/A     23  12  62 VRB3      30.65F
6HR MIN TEMP:   9; 6HR MAX TEMP:  23; 6HR PCP:  0.04;

KIRKSVILLE     SUNNY     23  10  57 W6        30.60F WCI  16
6HR MIN TEMP:   7; 6HR MAX TEMP:  23;


$$
MOZ066>068-077>081-088>096-101>105-091900-
...SOUTHWEST MISSOURI...

CITY           SKY/WX    TMP DP  RH WIND       PRES   REMARKS
SPRINGFIELD    SUNNY     29  11  47 VRB5      30.59F WCI  24
6HR MIN TEMP:  11; 6HR MAX TEMP:  29;

JOPLIN         SUNNY     28  12  51 VRB5      30.63F WCI  23
6HR MIN TEMP:  11; 6HR MAX TEMP:  28;


$$
MOZ032>034-039>042-045>050-055>058-069>072-091900-
...CENTRAL MISSOURI...

CITY           SKY/WX    TMP DP  RH WIND       PRES   REMARKS
COLUMBIA       CLOUDY    24  10  55 NW7       30.62F WCI  16
6HR MIN TEMP:  13; 6HR MAX TEMP:  24;

JEFFERSON CITY CLOUDY    26  13  57 VRB3      30.66F
6HR MIN TEMP:  12; 6HR MAX TEMP:  26;

ROLLA          SUNNY     26  10  50 W5        30.59F WCI  20
6HR MIN TEMP:  12; 6HR MAX TEMP:  27;

SEDALIA        MOSUNNY   23  12  62 CALM      30.65F
6HR MIN TEMP:  13; 6HR MAX TEMP:  23;

WHITEMAN AFB   PTSUNNY   21  13  70 CALM      30.64F
WARRENSBURG    CLOUDY    23  14  68 CALM      30.65F
OSAGE BEACH    SUNNY     31  11  43 CALM      30.64F

$$
MOZ051-052-059>065-091900-
...EAST CENTRAL MISSOURI...

CITY           SKY/WX    TMP DP  RH WIND       PRES   REMARKS
ST LOUIS INTL  PTSUNNY   28  12  51 W8        30.63F WCI  20
6HR MIN TEMP:  17; 6HR MAX TEMP:  29;

SPIRIT OF STL  PTSUNNY   27  12  53 VRB5      30.64S WCI  22
6HR MIN TEMP:  14; 6HR MAX TEMP:  28;

ST CHARLES     MOSUNNY   26  13  57 W9        30.63F WCI  17
6HR MIN TEMP:  17; 6HR MAX TEMP:  26;


$$
MOZ072>076-082>087-097>100-106>115-091900-
...SOUTH CENTRAL AND SOUTHEAST MISSOURI...

CITY           SKY/WX    TMP DP  RH WIND       PRES   REMARKS
CAPE GIRARDEAU SUNNY     29  14  53 NW8       30.65F WCI  21
6HR MIN TEMP:  16; 6HR MAX TEMP:  29;

FARMINGTON     SUNNY     27  12  53 VRB5      30.60F WCI  22
6HR MIN TEMP:  15; 6HR MAX TEMP:  27;

POPLAR BLUFF   SUNNY     31  14  49 N5        30.65F WCI  26
6HR MIN TEMP:  18; 6HR MAX TEMP:  31;

WEST PLAINS    SUNNY     30  12  47 NW6       30.61F WCI  24
6HR MIN TEMP:  11; 6HR MAX TEMP:  30;


$$




USA.gov is the U.S. government's official web portal to all federal, state and local government web resources and services.